SBI275 VABB-OMDB

Flight info

Callsign SBI275
Flight time N/A
Altitude 34000
Route OMKIS2B SAKUN V2 SUGID N571 PARAR/N0459F360 N571 VUSET A454 PASOV B540 KUPMA/N0396F240 B540 MIVEK P574 IMPED
Aircraft A321/M-SDE3FGHIRWY/LB1

Departure

Time 2026-05-07 03:02
Airport Chhatrapati Shivaji Maharaj International Airport (VABB)

Arrival

Time N/A
Airport Dubai International Airport (OMDB)
Time Latitude Longitude Altitude Speed Heading
2026-05-07 02:37 19.09322 72.87200 33 ft 0 kts 339°
2026-05-07 02:46 19.09305 72.87207 32 ft 3 kts 334°
2026-05-07 02:46 19.09285 72.87219 32 ft 3 kts 328°
2026-05-07 02:47 19.09265 72.87232 32 ft 3 kts 330°
2026-05-07 02:47 19.09248 72.87243 33 ft 3 kts 317°
2026-05-07 02:47 19.09234 72.87261 32 ft 3 kts 289°
2026-05-07 02:47 19.09231 72.87284 31 ft 3 kts 262°
2026-05-07 02:48 19.09236 72.87308 32 ft 3 kts 256°
2026-05-07 02:48 19.09239 72.87325 33 ft 1 kts 268°
2026-05-07 02:51 19.09237 72.87310 32 ft 4 kts 258°
2026-05-07 02:52 19.09215 72.87276 33 ft 7 kts 225°
2026-05-07 02:52 19.09168 72.87228 32 ft 12 kts 226°
2026-05-07 02:52 19.09137 72.87139 34 ft 15 kts 267°
2026-05-07 02:52 19.09135 72.87026 33 ft 16 kts 269°
2026-05-07 02:53 19.09133 72.86906 33 ft 17 kts 268°
2026-05-07 02:53 19.09126 72.86802 33 ft 13 kts 270°
2026-05-07 02:53 19.09154 72.86738 32 ft 0 kts 313°
2026-05-07 02:55 19.09155 72.86737 32 ft 0 kts 313°
2026-05-07 02:55 19.09157 72.86735 31 ft 1 kts 313°
2026-05-07 02:55 19.09163 72.86728 33 ft 3 kts 313°
2026-05-07 02:55 19.09190 72.86696 33 ft 8 kts 314°
2026-05-07 02:56 19.09243 72.86640 33 ft 10 kts 311°
2026-05-07 02:56 19.09244 72.86559 34 ft 7 kts 240°
2026-05-07 02:56 19.09200 72.86505 33 ft 13 kts 229°
2026-05-07 02:56 19.09128 72.86415 32 ft 17 kts 230°
2026-05-07 02:57 19.09055 72.86327 32 ft 18 kts 235°
2026-05-07 02:57 19.09035 72.86176 30 ft 23 kts 271°
2026-05-07 02:57 19.09032 72.86002 29 ft 24 kts 269°
2026-05-07 02:57 19.09031 72.85829 28 ft 24 kts 269°
2026-05-07 02:58 19.09027 72.85650 27 ft 25 kts 269°
2026-05-07 02:58 19.09026 72.85465 27 ft 25 kts 269°
2026-05-07 02:58 19.09022 72.85283 26 ft 24 kts 269°
2026-05-07 02:58 19.09017 72.85121 25 ft 19 kts 260°
2026-05-07 02:59 19.08984 72.84988 24 ft 14 kts 254°
2026-05-07 02:59 19.08956 72.84945 24 ft 0 kts 215°
2026-05-07 03:00 19.08955 72.84945 24 ft 1 kts 215°
2026-05-07 03:00 19.08937 72.84936 24 ft 4 kts 200°
2026-05-07 03:00 19.08906 72.84936 24 ft 5 kts 156°
2026-05-07 03:00 19.08862 72.84967 24 ft 12 kts 128°
2026-05-07 03:01 19.08848 72.85080 25 ft 19 kts 81°
2026-05-07 03:01 19.08850 72.85249 26 ft 40 kts 89°
2026-05-07 03:01 19.08859 72.85784 27 ft 102 kts 89°
2026-05-07 03:01 19.08871 72.86719 34 ft 149 kts 89°
2026-05-07 03:02 19.08898 72.87938 180 ft 174 kts 88°
2026-05-07 03:02 19.08925 72.89198 748 ft 174 kts 88°
2026-05-07 03:02 19.08936 72.90480 1259 ft 176 kts 88°
2026-05-07 03:02 19.08950 72.91830 1481 ft 194 kts 88°
2026-05-07 03:03 19.08970 72.93326 1610 ft 212 kts 87°
2026-05-07 03:03 19.08739 72.94927 1714 ft 235 kts 116°
2026-05-07 03:03 19.07535 72.96186 1884 ft 260 kts 155°
2026-05-07 03:03 19.05724 72.96443 2294 ft 271 kts 192°
2026-05-07 03:04 19.03939 72.95762 2849 ft 275 kts 201°
2026-05-07 03:04 19.02066 72.95393 3373 ft 280 kts 179°
2026-05-07 03:04 19.00128 72.95628 3991 ft 282 kts 168°
2026-05-07 03:04 18.98217 72.96133 4604 ft 284 kts 164°
2026-05-07 03:05 18.96261 72.96458 5139 ft 286 kts 184°
2026-05-07 03:05 18.94348 72.95914 5693 ft 287 kts 209°
2026-05-07 03:05 18.92843 72.94554 6229 ft 287 kts 236°
2026-05-07 03:05 18.92054 72.92669 6766 ft 286 kts 261°
2026-05-07 03:06 18.92133 72.90583 7275 ft 288 kts 288°
2026-05-07 03:06 18.92885 72.88606 7768 ft 292 kts 293°
2026-05-07 03:06 18.93700 72.86618 8268 ft 297 kts 293°
2026-05-07 03:06 18.94530 72.84604 8784 ft 300 kts 293°
2026-05-07 03:07 18.95366 72.82572 9376 ft 302 kts 293°
2026-05-07 03:07 18.96206 72.80523 9904 ft 306 kts 292°
2026-05-07 03:07 18.97074 72.78394 10033 ft 325 kts 292°
2026-05-07 03:07 18.97989 72.76147 10146 ft 342 kts 292°
2026-05-07 03:08 18.98946 72.73790 10345 ft 355 kts 292°
2026-05-07 03:08 18.99931 72.71369 10762 ft 360 kts 292°
2026-05-07 03:08 19.00926 72.68925 11273 ft 363 kts 292°
2026-05-07 03:08 19.01912 72.66502 11797 ft 365 kts 292°
2026-05-07 03:09 19.02917 72.64025 12342 ft 367 kts 292°
2026-05-07 03:09 19.03925 72.61536 12890 ft 369 kts 292°
2026-05-07 03:09 19.04943 72.59024 13430 ft 372 kts 292°
2026-05-07 03:09 19.05965 72.56500 13882 ft 375 kts 292°
2026-05-07 03:10 19.06995 72.53958 14368 ft 377 kts 292°
2026-05-07 03:10 19.08032 72.51401 14856 ft 378 kts 292°
2026-05-07 03:10 19.09071 72.48840 15327 ft 379 kts 292°
2026-05-07 03:10 19.10114 72.46270 15796 ft 380 kts 292°
2026-05-07 03:11 19.11155 72.43702 16251 ft 381 kts 293°
2026-05-07 03:11 19.12188 72.41152 16702 ft 382 kts 293°
2026-05-07 03:11 19.13235 72.38562 17138 ft 383 kts 293°
2026-05-07 03:11 19.14283 72.35962 17541 ft 384 kts 293°
2026-05-07 03:12 19.15336 72.33350 17955 ft 386 kts 293°
2026-05-07 03:12 19.16391 72.30738 18308 ft 387 kts 294°
2026-05-07 03:12 19.17450 72.28121 18639 ft 388 kts 294°
2026-05-07 03:12 19.18515 72.25488 18951 ft 389 kts 294°
2026-05-07 03:13 19.19578 72.22853 19243 ft 390 kts 294°
2026-05-07 03:13 19.20629 72.20242 19518 ft 391 kts 294°
2026-05-07 03:13 19.21697 72.17587 19782 ft 392 kts 294°
2026-05-07 03:13 19.22766 72.14926 20046 ft 393 kts 294°
2026-05-07 03:14 19.23838 72.12259 20307 ft 394 kts 294°
2026-05-07 03:14 19.24913 72.09589 20593 ft 394 kts 294°
2026-05-07 03:14 19.27064 72.04238 21100 ft 395 kts 294°
2026-05-07 03:15 19.28138 72.01556 21339 ft 396 kts 294°
2026-05-07 03:15 19.29212 71.98868 21576 ft 397 kts 294°
2026-05-07 03:15 19.30275 71.96207 21807 ft 398 kts 294°
2026-05-07 03:15 19.31357 71.93508 22040 ft 399 kts 295°
2026-05-07 03:16 19.32443 71.90802 22250 ft 400 kts 295°
2026-05-07 03:16 19.33536 71.88084 22469 ft 401 kts 295°
2026-05-07 03:16 19.34633 71.85355 22687 ft 402 kts 295°
2026-05-07 03:16 19.35728 71.82625 22909 ft 403 kts 295°
2026-05-07 03:17 19.36829 71.79877 23131 ft 405 kts 295°
2026-05-07 03:17 19.37925 71.77136 23339 ft 406 kts 295°
2026-05-07 03:17 19.39028 71.74376 23544 ft 407 kts 295°
2026-05-07 03:17 19.40129 71.71616 23719 ft 408 kts 295°
2026-05-07 03:18 19.41219 71.68877 23890 ft 409 kts 295°
2026-05-07 03:18 19.42327 71.66095 24063 ft 410 kts 295°
2026-05-07 03:18 19.43441 71.63303 24234 ft 411 kts 295°
2026-05-07 03:18 19.44556 71.60507 24424 ft 412 kts 295°
2026-05-07 03:19 19.45675 71.57698 24600 ft 414 kts 295°
2026-05-07 03:19 19.46793 71.54891 24764 ft 415 kts 295°
2026-05-07 03:19 19.47919 71.52060 24924 ft 417 kts 295°
2026-05-07 03:19 19.49049 71.49223 25092 ft 418 kts 294°
2026-05-07 03:20 19.50180 71.46377 25296 ft 419 kts 295°
2026-05-07 03:20 19.51314 71.43524 25494 ft 419 kts 295°
2026-05-07 03:20 19.52446 71.40674 25668 ft 420 kts 294°
2026-05-07 03:20 19.53565 71.37848 25837 ft 421 kts 294°
2026-05-07 03:21 19.54700 71.34984 26002 ft 422 kts 294°
2026-05-07 03:21 19.55838 71.32109 26169 ft 423 kts 294°
2026-05-07 03:21 19.56979 71.29220 26334 ft 424 kts 294°
2026-05-07 03:21 19.58123 71.26327 26497 ft 426 kts 294°
2026-05-07 03:22 19.59276 71.23416 26665 ft 427 kts 294°
2026-05-07 03:22 19.60414 71.20540 26819 ft 428 kts 294°
2026-05-07 03:22 19.61513 71.17601 26980 ft 429 kts 292°
2026-05-07 03:22 19.62510 71.14605 27135 ft 431 kts 290°
2026-05-07 03:23 19.63441 71.11574 27298 ft 432 kts 289°
2026-05-07 03:23 19.64341 71.08523 27458 ft 433 kts 289°
2026-05-07 03:23 19.65246 71.05463 27615 ft 435 kts 289°
2026-05-07 03:23 19.66164 71.02406 27771 ft 436 kts 289°
2026-05-07 03:24 19.67088 70.99383 27924 ft 437 kts 289°
2026-05-07 03:24 19.68052 70.96276 28091 ft 438 kts 290°
2026-05-07 03:24 19.68999 70.93249 28246 ft 439 kts 290°
2026-05-07 03:24 19.69965 70.90170 28391 ft 440 kts 290°
2026-05-07 03:25 19.70929 70.87092 28529 ft 441 kts 290°
2026-05-07 03:25 19.71899 70.83995 28657 ft 442 kts 290°
2026-05-07 03:25 19.72867 70.80885 28791 ft 444 kts 289°
2026-05-07 03:25 19.73835 70.77768 28921 ft 445 kts 289°
2026-05-07 03:26 19.74802 70.74652 29101 ft 444 kts 289°
2026-05-07 03:26 19.75767 70.71537 29249 ft 444 kts 289°
2026-05-07 03:26 19.76736 70.68416 29384 ft 445 kts 289°
2026-05-07 03:26 19.77707 70.65291 29513 ft 445 kts 289°
2026-05-07 03:27 19.78665 70.62209 29646 ft 446 kts 289°
2026-05-07 03:27 19.79638 70.59069 29780 ft 446 kts 289°
2026-05-07 03:27 19.80607 70.55935 29909 ft 446 kts 289°
2026-05-07 03:27 19.81574 70.52807 30018 ft 446 kts 289°
2026-05-07 03:28 19.82540 70.49669 30130 ft 447 kts 289°
2026-05-07 03:28 19.83503 70.46534 30248 ft 447 kts 289°
2026-05-07 03:28 19.84468 70.43390 30361 ft 447 kts 289°
2026-05-07 03:28 19.85420 70.40239 30476 ft 448 kts 286°
2026-05-07 03:29 19.85996 70.37017 30578 ft 449 kts 276°
2026-05-07 03:29 19.86018 70.33689 30699 ft 452 kts 266°
2026-05-07 03:29 19.85473 70.30396 30813 ft 455 kts 256°
2026-05-07 03:29 19.84485 70.27191 30930 ft 456 kts 253°
2026-05-07 03:30 19.83465 70.23997 31047 ft 456 kts 253°
2026-05-07 03:30 19.82450 70.20806 31178 ft 456 kts 254°
2026-05-07 03:30 19.81443 70.17613 31296 ft 456 kts 254°
2026-05-07 03:30 19.80438 70.14411 31413 ft 456 kts 253°
2026-05-07 03:31 19.79432 70.11216 31543 ft 456 kts 253°
2026-05-07 03:31 19.77418 70.04873 31819 ft 455 kts 253°
2026-05-07 03:31 19.76404 70.01686 31963 ft 455 kts 253°
2026-05-07 03:32 19.75389 69.98503 32110 ft 454 kts 253°
2026-05-07 03:32 19.73713 69.93229 32350 ft 453 kts 253°
2026-05-07 03:32 19.72702 69.90051 32499 ft 453 kts 253°
2026-05-07 03:33 19.71697 69.86891 32657 ft 452 kts 253°
2026-05-07 03:33 19.70692 69.83725 32777 ft 452 kts 253°
2026-05-07 03:33 19.69686 69.80565 32909 ft 452 kts 253°
2026-05-07 03:33 19.68678 69.77408 33042 ft 452 kts 253°
2026-05-07 03:34 19.67672 69.74254 33182 ft 451 kts 253°
2026-05-07 03:34 19.66667 69.71104 33327 ft 451 kts 253°
2026-05-07 03:34 19.65663 69.67958 33486 ft 450 kts 253°
2026-05-07 03:34 19.64654 69.64799 33621 ft 450 kts 253°
2026-05-07 03:35 19.63654 69.61666 33771 ft 449 kts 253°
2026-05-07 03:35 19.62665 69.58563 33909 ft 448 kts 253°
2026-05-07 03:35 19.61666 69.55432 34033 ft 448 kts 252°
2026-05-07 03:35 19.60662 69.52302 34163 ft 447 kts 252°
2026-05-07 03:36 19.59658 69.49179 34279 ft 447 kts 252°
2026-05-07 03:36 19.58652 69.46054 34389 ft 447 kts 252°
2026-05-07 03:36 19.57643 69.42930 34504 ft 447 kts 252°
2026-05-07 03:36 19.56781 69.39769 34615 ft 446 kts 260°
2026-05-07 03:37 19.56464 69.36506 34726 ft 445 kts 271°
2026-05-07 03:37 19.56719 69.33286 34839 ft 444 kts 281°
2026-05-07 03:37 19.57541 69.30132 34967 ft 443 kts 291°
2026-05-07 03:37 19.58849 69.27172 35095 ft 443 kts 296°
2026-05-07 03:38 19.60259 69.24253 35210 ft 443 kts 296°
2026-05-07 03:38 19.61656 69.21345 35330 ft 442 kts 296°
2026-05-07 03:38 19.63034 69.18468 35449 ft 442 kts 296°
2026-05-07 03:38 19.64429 69.15559 35553 ft 442 kts 296°
2026-05-07 03:39 19.65823 69.12652 35687 ft 441 kts 296°
2026-05-07 03:39 19.67212 69.09757 35827 ft 440 kts 296°
2026-05-07 03:39 19.68604 69.06852 35880 ft 440 kts 296°
2026-05-07 03:40 19.71362 69.01094 35883 ft 440 kts 296°
2026-05-07 03:40 19.74135 68.95307 35882 ft 439 kts 296°
2026-05-07 03:41 19.76907 68.89520 35882 ft 439 kts 296°
2026-05-07 03:41 19.79676 68.83725 35881 ft 440 kts 296°
2026-05-07 03:42 19.82446 68.77923 35892 ft 440 kts 296°
2026-05-07 03:42 19.85213 68.72125 35904 ft 440 kts 296°
2026-05-07 03:43 19.87961 68.66356 35905 ft 439 kts 296°
2026-05-07 03:43 19.90716 68.60570 35911 ft 438 kts 296°
2026-05-07 03:44 19.93469 68.54782 35912 ft 438 kts 296°
2026-05-07 03:44 19.96195 68.49026 35905 ft 437 kts 296°
2026-05-07 03:45 19.98937 68.43235 35901 ft 438 kts 296°
2026-05-07 03:45 20.01685 68.37450 35899 ft 438 kts 296°
2026-05-07 03:46 20.04414 68.31701 35900 ft 438 kts 296°
2026-05-07 03:46 20.07154 68.25908 35904 ft 438 kts 296°
2026-05-07 03:47 20.09889 68.20115 35908 ft 438 kts 296°
2026-05-07 03:47 20.12617 68.14324 35905 ft 437 kts 296°
2026-05-07 03:48 20.15348 68.08530 35910 ft 437 kts 296°
2026-05-07 03:48 20.18080 68.02738 35905 ft 437 kts 296°
2026-05-07 03:49 20.20790 67.96983 35909 ft 438 kts 296°
2026-05-07 03:49 20.23517 67.91190 35910 ft 438 kts 296°
2026-05-07 03:50 20.26243 67.85373 35908 ft 438 kts 296°
2026-05-07 03:50 20.28957 67.79574 35914 ft 438 kts 295°
2026-05-07 03:51 20.31690 67.73747 35916 ft 438 kts 296°
2026-05-07 03:51 20.34403 67.67962 35914 ft 438 kts 296°
2026-05-07 03:52 20.37116 67.62153 35916 ft 437 kts 295°
2026-05-07 03:52 20.39819 67.56362 35914 ft 436 kts 296°
2026-05-07 03:53 20.42521 67.50570 35909 ft 436 kts 296°
2026-05-07 03:53 20.45204 67.44813 35905 ft 436 kts 296°
2026-05-07 03:54 20.47907 67.39029 35904 ft 435 kts 296°
2026-05-07 03:54 20.50603 67.33222 35906 ft 435 kts 296°
2026-05-07 03:55 20.53273 67.27478 35897 ft 435 kts 295°
2026-05-07 03:55 20.55963 67.21679 35895 ft 435 kts 295°
2026-05-07 03:56 20.58645 67.15891 35897 ft 435 kts 296°
2026-05-07 03:56 20.61313 67.10129 35899 ft 436 kts 295°
2026-05-07 03:57 20.64003 67.04320 35899 ft 436 kts 295°
2026-05-07 03:57 20.66695 66.98487 35902 ft 436 kts 295°
2026-05-07 03:58 20.69374 66.92677 35899 ft 436 kts 295°
2026-05-07 03:58 20.72057 66.86858 35895 ft 436 kts 295°
2026-05-07 03:59 20.74724 66.81067 35893 ft 436 kts 295°
2026-05-07 03:59 20.77412 66.75232 35893 ft 436 kts 295°
2026-05-07 04:00 20.80092 66.69402 35898 ft 436 kts 295°
2026-05-07 04:00 20.82748 66.63611 35896 ft 436 kts 295°
2026-05-07 04:01 20.85419 66.57793 35899 ft 436 kts 296°
2026-05-07 04:01 20.88096 66.51965 35893 ft 436 kts 295°
2026-05-07 04:02 20.90761 66.46136 35888 ft 436 kts 295°
2026-05-07 04:02 20.93425 66.40303 35889 ft 436 kts 295°
2026-05-07 04:03 20.96065 66.34500 35889 ft 436 kts 295°
2026-05-07 04:03 20.98733 66.28659 35890 ft 437 kts 295°
2026-05-07 04:04 21.01409 66.22810 35890 ft 437 kts 295°
2026-05-07 04:04 21.04060 66.16991 35897 ft 437 kts 296°
2026-05-07 04:05 21.06722 66.11133 35897 ft 437 kts 296°
2026-05-07 04:05 21.09379 66.05276 35898 ft 437 kts 295°
2026-05-07 04:06 21.12041 65.99401 35902 ft 437 kts 296°
2026-05-07 04:06 21.14756 65.93569 35903 ft 437 kts 296°
2026-05-07 04:07 21.17503 65.87799 35899 ft 438 kts 297°
2026-05-07 04:07 21.20270 65.81987 35898 ft 438 kts 296°
2026-05-07 04:08 21.23014 65.76143 35890 ft 438 kts 296°
2026-05-07 04:08 21.25746 65.70312 35906 ft 437 kts 296°
2026-05-07 04:09 21.28484 65.64480 35903 ft 437 kts 296°
2026-05-07 04:09 21.31195 65.58689 35898 ft 437 kts 296°
2026-05-07 04:10 21.33926 65.52861 35893 ft 437 kts 296°
2026-05-07 04:10 21.36656 65.47028 35892 ft 437 kts 296°
2026-05-07 04:11 21.39372 65.41218 35896 ft 437 kts 296°
2026-05-07 04:11 21.42091 65.35371 35900 ft 438 kts 296°
2026-05-07 04:12 21.44818 65.29519 35894 ft 438 kts 296°
2026-05-07 04:12 21.47543 65.23675 35896 ft 438 kts 296°
2026-05-07 04:13 21.50269 65.17821 35903 ft 437 kts 296°
2026-05-07 04:13 21.52968 65.12004 35897 ft 437 kts 296°
2026-05-07 04:14 21.55684 65.06143 35902 ft 437 kts 296°
2026-05-07 04:14 21.58381 65.00317 35899 ft 437 kts 296°
2026-05-07 04:15 21.61096 64.94461 35899 ft 437 kts 296°
2026-05-07 04:15 21.63810 64.88594 35895 ft 437 kts 296°
2026-05-07 04:16 21.66515 64.82736 35896 ft 437 kts 296°
2026-05-07 04:16 21.69204 64.76908 35893 ft 437 kts 296°
2026-05-07 04:17 21.71908 64.71052 35898 ft 437 kts 296°
2026-05-07 04:17 21.74604 64.65196 35894 ft 437 kts 296°
2026-05-07 04:18 21.77298 64.59335 35895 ft 436 kts 296°
2026-05-07 04:18 21.79530 64.54463 35892 ft 436 kts 296°
2026-05-07 04:19 21.82223 64.48600 35891 ft 436 kts 296°
2026-05-07 04:19 21.84915 64.42724 35889 ft 436 kts 296°
2026-05-07 04:20 21.87583 64.36885 35887 ft 436 kts 296°
2026-05-07 04:20 21.90263 64.31018 35886 ft 436 kts 296°
2026-05-07 04:21 21.94288 64.22212 35896 ft 436 kts 296°
2026-05-07 04:21 21.96946 64.16377 35895 ft 436 kts 296°
2026-05-07 04:22 21.99624 64.10500 35893 ft 436 kts 296°
2026-05-07 04:22 22.02299 64.04625 35887 ft 436 kts 296°
2026-05-07 04:23 22.04961 63.98768 35889 ft 436 kts 296°
2026-05-07 04:23 22.07635 63.92884 35889 ft 437 kts 296°
2026-05-07 04:24 22.10304 63.86993 35892 ft 437 kts 296°
2026-05-07 04:24 22.12974 63.81097 35895 ft 437 kts 295°
2026-05-07 04:25 22.15622 63.75232 35898 ft 437 kts 295°
2026-05-07 04:25 22.18281 63.69342 35892 ft 436 kts 295°
2026-05-07 04:26 22.20941 63.63461 35892 ft 436 kts 295°
2026-05-07 04:26 22.23596 63.57575 35887 ft 436 kts 295°
2026-05-07 04:27 22.26243 63.51683 35887 ft 436 kts 295°
2026-05-07 04:27 22.28872 63.45824 35887 ft 435 kts 295°
2026-05-07 04:28 22.31512 63.39939 35884 ft 436 kts 295°
2026-05-07 04:28 22.34158 63.34054 35885 ft 436 kts 295°
2026-05-07 04:29 22.36805 63.28159 35891 ft 436 kts 295°
2026-05-07 04:29 22.39445 63.22264 35891 ft 435 kts 295°
2026-05-07 04:30 22.42054 63.16402 35887 ft 435 kts 295°
2026-05-07 04:30 22.44667 63.10498 35887 ft 435 kts 294°
2026-05-07 04:31 22.47087 63.04491 35884 ft 435 kts 292°
2026-05-07 04:31 22.49375 62.98438 35883 ft 435 kts 291°
2026-05-07 04:32 22.51680 62.92397 35883 ft 434 kts 292°
2026-05-07 04:32 22.54031 62.86377 35882 ft 434 kts 292°
2026-05-07 04:33 22.56394 62.80358 35891 ft 434 kts 292°
2026-05-07 04:33 22.58726 62.74372 35888 ft 434 kts 292°
2026-05-07 04:34 22.61067 62.68350 35885 ft 433 kts 292°
2026-05-07 04:34 22.63399 62.62330 35884 ft 433 kts 292°
2026-05-07 04:35 22.65720 62.56304 35881 ft 433 kts 292°
2026-05-07 04:35 22.68027 62.50321 35878 ft 433 kts 292°
2026-05-07 04:36 22.70356 62.44308 35878 ft 433 kts 292°
2026-05-07 04:36 22.72690 62.38276 35872 ft 432 kts 292°
2026-05-07 04:37 22.74999 62.32299 35871 ft 432 kts 292°
2026-05-07 04:37 22.77311 62.26280 35870 ft 432 kts 292°
2026-05-07 04:38 22.79610 62.20290 35869 ft 432 kts 292°
2026-05-07 04:38 22.81927 62.14265 35869 ft 432 kts 292°
2026-05-07 04:39 22.84235 62.08239 35869 ft 432 kts 292°
2026-05-07 04:39 22.86536 62.02208 35867 ft 432 kts 292°
2026-05-07 04:40 22.88826 61.96210 35868 ft 432 kts 292°
2026-05-07 04:40 22.91132 61.90170 35852 ft 432 kts 292°
2026-05-07 04:41 22.93436 61.84143 35857 ft 433 kts 292°
2026-05-07 04:41 22.95726 61.78145 35862 ft 432 kts 291°
2026-05-07 04:42 22.98015 61.72116 35867 ft 432 kts 291°
2026-05-07 04:42 23.00309 61.66075 35866 ft 432 kts 291°
2026-05-07 04:43 23.02594 61.60040 35867 ft 431 kts 291°
2026-05-07 04:43 23.04862 61.54041 35866 ft 432 kts 291°
2026-05-07 04:44 23.07149 61.48006 35867 ft 432 kts 291°
2026-05-07 04:44 23.09427 61.41970 35867 ft 431 kts 291°
2026-05-07 04:45 23.11705 61.35924 35866 ft 431 kts 291°
2026-05-07 04:45 23.13956 61.29926 35868 ft 431 kts 291°
2026-05-07 04:46 23.16233 61.23885 35865 ft 431 kts 291°
2026-05-07 04:46 23.18501 61.17860 35863 ft 431 kts 291°
2026-05-07 04:47 23.20769 61.11818 35859 ft 430 kts 291°
2026-05-07 04:47 23.23016 61.05797 35860 ft 430 kts 291°
2026-05-07 04:48 23.25269 60.99767 35857 ft 430 kts 291°
2026-05-07 04:48 23.27509 60.93771 35854 ft 430 kts 291°
2026-05-07 04:49 23.29768 60.87739 35851 ft 430 kts 291°
2026-05-07 04:49 23.32007 60.81739 35854 ft 429 kts 291°
2026-05-07 04:50 23.34245 60.75711 35858 ft 429 kts 291°
2026-05-07 04:50 23.36482 60.69684 35852 ft 429 kts 291°
2026-05-07 04:51 23.38702 60.63695 35852 ft 428 kts 291°
2026-05-07 04:51 23.40921 60.57662 35852 ft 429 kts 291°
2026-05-07 04:52 23.43128 60.51626 35855 ft 429 kts 291°
2026-05-07 04:52 23.45330 60.45591 35848 ft 428 kts 290°
2026-05-07 04:53 23.47533 60.39552 35847 ft 429 kts 290°
2026-05-07 04:53 23.49714 60.33550 35861 ft 428 kts 290°
2026-05-07 04:54 23.51914 60.27509 35859 ft 428 kts 290°
2026-05-07 04:54 23.54104 60.21478 35857 ft 428 kts 290°
2026-05-07 04:55 23.56291 60.15444 35854 ft 428 kts 290°
2026-05-07 04:55 23.58478 60.09416 35852 ft 428 kts 290°
2026-05-07 04:56 23.60668 60.03380 35854 ft 428 kts 290°
2026-05-07 04:56 23.62848 59.97340 35853 ft 428 kts 290°
2026-05-07 04:57 23.65014 59.91339 35854 ft 428 kts 290°
2026-05-07 04:57 23.67195 59.85300 35864 ft 428 kts 290°
2026-05-07 04:58 23.69366 59.79263 35863 ft 427 kts 290°
2026-05-07 04:58 23.71532 59.73224 35862 ft 427 kts 290°
2026-05-07 04:59 23.73698 59.67189 35860 ft 427 kts 290°
2026-05-07 04:59 23.75865 59.61158 35858 ft 426 kts 290°
2026-05-07 05:00 23.78014 59.55162 35852 ft 426 kts 290°
2026-05-07 05:00 23.80170 59.49123 35854 ft 427 kts 290°
2026-05-07 05:01 23.82326 59.43060 35855 ft 427 kts 290°
2026-05-07 05:01 23.84470 59.37050 35865 ft 427 kts 290°
2026-05-07 05:02 23.86628 59.31005 35863 ft 427 kts 290°
2026-05-07 05:02 23.88776 59.24962 35863 ft 427 kts 290°
2026-05-07 05:03 23.90557 59.19936 35863 ft 427 kts 290°
2026-05-07 05:03 23.93047 59.12890 35859 ft 426 kts 289°
2026-05-07 05:04 23.94731 59.07813 35863 ft 426 kts 288°
2026-05-07 05:04 23.96659 59.01681 35858 ft 426 kts 287°
2026-05-07 05:05 23.98587 58.95550 35860 ft 426 kts 288°
2026-05-07 05:05 24.00541 58.89447 35871 ft 427 kts 288°
2026-05-07 05:06 24.02509 58.83314 35872 ft 426 kts 288°
2026-05-07 05:06 24.04471 58.77179 35872 ft 426 kts 288°
2026-05-07 05:07 24.06408 58.71099 35870 ft 426 kts 288°
2026-05-07 05:07 24.08359 58.64974 35870 ft 426 kts 288°
2026-05-07 05:08 24.10308 58.58845 35872 ft 426 kts 288°
2026-05-07 05:08 24.12253 58.52709 35870 ft 425 kts 288°
2026-05-07 05:09 24.14179 58.46620 35867 ft 425 kts 287°
2026-05-07 05:09 24.16120 58.40490 35868 ft 425 kts 287°
2026-05-07 05:10 24.18056 58.34356 35872 ft 425 kts 287°
2026-05-07 05:10 24.19973 58.28272 35869 ft 424 kts 287°
2026-05-07 05:11 24.21903 58.22154 35866 ft 424 kts 287°
2026-05-07 05:11 24.23824 58.16047 35865 ft 424 kts 287°
2026-05-07 05:12 24.25732 58.09974 35862 ft 423 kts 287°
2026-05-07 05:12 24.27642 58.03859 35861 ft 423 kts 287°
2026-05-07 05:13 24.29550 57.97734 35861 ft 424 kts 287°
2026-05-07 05:13 24.31456 57.91623 35859 ft 424 kts 287°
2026-05-07 05:14 24.33357 57.85540 35867 ft 424 kts 287°
2026-05-07 05:14 24.35270 57.79423 35864 ft 423 kts 287°
2026-05-07 05:15 24.37174 57.73305 35862 ft 423 kts 287°
2026-05-07 05:15 24.39054 57.67227 35860 ft 423 kts 287°
2026-05-07 05:16 24.40950 57.61105 35859 ft 423 kts 287°
2026-05-07 05:16 24.42842 57.54985 35856 ft 423 kts 287°
2026-05-07 05:17 24.44723 57.48908 35844 ft 424 kts 287°
2026-05-07 05:17 24.46617 57.42763 35826 ft 426 kts 287°
2026-05-07 05:18 24.48514 57.36594 35822 ft 427 kts 287°
2026-05-07 05:18 24.50421 57.30391 35823 ft 429 kts 287°
2026-05-07 05:19 24.52327 57.24177 35836 ft 430 kts 287°
2026-05-07 05:19 24.54237 57.17950 35841 ft 430 kts 287°
2026-05-07 05:20 24.56128 57.11767 35843 ft 430 kts 286°
2026-05-07 05:20 24.58034 57.05533 35845 ft 430 kts 286°
2026-05-07 05:21 24.60888 56.96163 35848 ft 431 kts 286°
2026-05-07 05:22 24.62788 56.89920 35862 ft 430 kts 286°
2026-05-07 05:22 24.64846 56.83749 35861 ft 432 kts 295°
2026-05-07 05:23 24.67930 56.78102 35859 ft 434 kts 298°
2026-05-07 05:23 24.71072 56.72431 35862 ft 434 kts 298°
2026-05-07 05:24 24.74207 56.66736 35865 ft 434 kts 298°
2026-05-07 05:24 24.77315 56.61075 35870 ft 434 kts 298°
2026-05-07 05:25 24.80447 56.55388 35881 ft 434 kts 298°
2026-05-07 05:25 24.83582 56.49691 35875 ft 434 kts 298°
2026-05-07 05:26 24.86704 56.44002 35870 ft 433 kts 297°
2026-05-07 05:26 24.87935 56.41008 35873 ft 427 kts 283°
2026-05-07 05:26 24.88411 56.37810 35870 ft 422 kts 269°
2026-05-07 05:27 24.88089 56.31401 35858 ft 422 kts 265°
2026-05-07 05:27 24.88364 56.24963 35854 ft 425 kts 285°
2026-05-07 05:27 24.89553 56.21972 35863 ft 430 kts 296°
2026-05-07 05:28 24.91031 56.19106 35861 ft 430 kts 296°
2026-05-07 05:28 24.93998 56.13351 35859 ft 432 kts 296°
2026-05-07 05:29 24.96957 56.07625 35872 ft 432 kts 298°
2026-05-07 05:29 25.00811 56.02463 35876 ft 437 kts 308°
2026-05-07 05:30 25.04918 55.97504 35887 ft 438 kts 308°
2026-05-07 05:30 25.09048 55.92544 35888 ft 438 kts 308°
2026-05-07 05:31 25.13131 55.87551 35892 ft 437 kts 308°
2026-05-07 05:31 25.16886 55.82384 35891 ft 432 kts 300°
2026-05-07 05:32 25.19499 55.76527 35891 ft 421 kts 277°
2026-05-07 05:32 25.20444 55.70153 35880 ft 421 kts 278°
2026-05-07 05:33 25.21555 55.63798 35881 ft 422 kts 279°
2026-05-07 05:33 25.22707 55.57430 35880 ft 422 kts 278°
2026-05-07 05:34 25.23240 55.51074 35863 ft 403 kts 270°
2026-05-07 05:34 25.23315 55.48078 35861 ft 387 kts 269°
2026-05-07 05:34 25.23378 55.45149 35863 ft 378 kts 269°
2026-05-07 05:35 25.23496 55.39333 35866 ft 377 kts 269°
2026-05-07 05:35 25.23624 55.33539 35864 ft 378 kts 271°
2026-05-07 05:35 25.24090 55.30673 35870 ft 381 kts 282°
2026-05-07 05:36 25.24789 55.27853 35851 ft 380 kts 282°
2026-05-07 05:36 25.26198 55.22265 35853 ft 380 kts 282°
2026-05-07 05:37 25.28293 55.16891 35859 ft 387 kts 297°
2026-05-07 05:37 25.31169 55.11838 35863 ft 387 kts 298°
2026-05-07 05:38 25.34038 55.06828 35863 ft 388 kts 298°
2026-05-07 05:38 25.36922 55.01775 35868 ft 388 kts 297°
2026-05-07 05:39 25.39809 54.96770 35863 ft 391 kts 304°
2026-05-07 05:39 25.41872 54.94768 35875 ft 403 kts 327°
2026-05-07 05:39 25.44576 54.93797 35872 ft 419 kts 350°
2026-05-07 05:39 25.47527 54.94047 35868 ft 435 kts 13°
2026-05-07 05:40 25.50240 54.95500 35867 ft 447 kts 35°
2026-05-07 05:40 25.52379 54.98017 35869 ft 454 kts 58°
2026-05-07 05:40 25.53583 55.01237 35866 ft 455 kts 81°
2026-05-07 05:40 25.53680 55.04707 35871 ft 450 kts 104°
2026-05-07 05:41 25.52672 55.07921 35855 ft 439 kts 127°
2026-05-07 05:41 25.50743 55.10455 35873 ft 427 kts 145°
2026-05-07 05:41 25.48473 55.12599 35854 ft 429 kts 145°
2026-05-07 05:42 25.43916 55.16880 35853 ft 430 kts 145°
2026-05-07 05:42 25.39353 55.21161 35850 ft 430 kts 145°
2026-05-07 05:43 25.34789 55.25441 35855 ft 430 kts 145°
2026-05-07 05:43 25.30224 55.29718 35852 ft 430 kts 145°
2026-05-07 05:44 25.26264 55.34705 35869 ft 442 kts 123°
2026-05-07 05:44 25.22846 55.40266 35865 ft 432 kts 141°
2026-05-07 05:45 25.18500 55.44829 35864 ft 431 kts 141°